Weather History for Beatrice, NE

Change the Weather History Date:

Thursday, March 27, 2014

  Actual Average Record
Temperature  
Mean Temperature 48 °F -  
Max Temperature 63 °F 59 °F 79 °F (2012)
Min Temperature 34 °F 34 °F 11 °F (1955)
Degree Days  
Heating Degree Days 16    
Moisture  
Dew Point 39 °F    
Average Humidity 80    
Maximum Humidity 95    
Minimum Humidity 52    
Precipitation  
Precipitation 0.00 in - - ()
Sea Level Pressure  
Sea Level Pressure 29.50 in    
Wind  
Wind Speed 17 mph (WSW)    
Max Wind Speed 32 mph    
Max Gust Speed 41 mph    
Visibility 9 miles    
Events      
Averages and records for this station are not official NWS values.
T = Trace of Precipitation, MM = Missing Value Source: NWS Daily Summary

Daily Weather History Graph

Daily Weather History Graph

Search for Another Location

Airport:

Trip Planner

Search our weather history database for the weather conditions in past years. The results will help you decide how hot, cold, wet, or windy it might be!

Date:

Astronomy

Mar. 27, 2014 Rise Set
Actual Time 7:18 AM CDT 7:46 PM CDT
Civil Twilight 6:51 AM CDT 8:13 PM CDT
Nautical Twilight 6:19 AM CDT 8:45 PM CDT
Astronomical Twilight 5:46 AM CDT 9:18 PM CDT
Moon 5:11 AM CDT (3/27) 4:34 PM CDT (3/27)
Length of Visible Light 13h 22m
Length of Day
12h 27m
Waning Crescent, 13% of the Moon is Illuminated
Mar 27
Waning Crescent
Mar 30
New
Apr 7
First Quarter
Apr 15
Full
Apr 22
Last Quarter

Hourly Weather History & Observations

Time (CDT) Temp. Windchill Dew Point Humidity Pressure Visibility Wind Dir Wind Speed Gust Speed Precip Events Conditions
12:15 AM 43.3 °F 35.0 °F 41.0 °F 91% 29.56 in 5.0 mi South 19.6 mph 28.8 mph N/A   Overcast
12:35 AM 43.5 °F 35.2 °F 41.0 °F 91% 29.56 in 5.0 mi South 19.6 mph 31.1 mph N/A   Overcast
1:15 AM 43.7 °F 34.7 °F 41.5 °F 92% 29.52 in 4.0 mi South 23.0 mph - N/A   Overcast
1:35 AM 43.7 °F 36.6 °F 41.9 °F 93% 29.51 in 3.0 mi South 15.0 mph 23.0 mph N/A   Overcast
1:55 AM 43.7 °F 36.3 °F 42.1 °F 94% 29.50 in 3.0 mi SSE 16.1 mph 23.0 mph N/A   Overcast
2:15 AM 43.9 °F 36.2 °F 42.3 °F 94% 29.49 in 2.5 mi South 17.3 mph 25.3 mph N/A   Overcast
2:35 AM 43.9 °F 36.5 °F 42.4 °F 95% 29.48 in 2.5 mi South 16.1 mph - N/A   Overcast
2:55 AM 44.2 °F 38.4 °F 42.6 °F 94% 29.47 in 3.0 mi South 11.5 mph 21.9 mph N/A   Overcast
3:15 AM 44.1 °F 37.7 °F 42.8 °F 95% 29.46 in 2.5 mi SSE 12.7 mph - N/A   Overcast
3:35 AM 44.2 °F 38.8 °F 42.8 °F 95% 29.44 in 2.5 mi SSE 10.4 mph 17.3 mph N/A   Overcast
3:55 AM 44.6 °F 38.4 °F 43.0 °F 94% 29.43 in 3.0 mi South 12.7 mph 17.3 mph N/A   Light Drizzle
4:15 AM 45.0 °F 38.9 °F 43.7 °F 95% 29.41 in 4.0 mi SSE 12.7 mph 17.3 mph N/A   Overcast
4:35 AM 45.7 °F 39.8 °F 44.1 °F 94% 29.39 in 5.0 mi SSE 12.7 mph 19.6 mph N/A   Overcast
4:55 AM 46.4 °F 40.4 °F 44.6 °F 93% 29.38 in 7.0 mi SSE 13.8 mph 18.4 mph N/A   Overcast
5:15 AM 46.6 °F - 44.6 °F 93% 29.37 in 7.0 mi SSE 11.5 mph 16.1 mph N/A   Overcast
5:35 AM 47.5 °F - 45.0 °F 91% 29.36 in 7.0 mi SSE 16.1 mph - N/A   Overcast
5:55 AM 47.8 °F - 45.1 °F 90% 29.36 in 10.0 mi SSE 9.2 mph - N/A   Overcast
6:15 AM 48.2 °F - 45.5 °F 90% 29.35 in 10.0 mi ESE 6.9 mph - N/A   Overcast
6:35 AM 48.4 °F - 45.5 °F 90% 29.36 in 10.0 mi SE 6.9 mph - N/A   Overcast
6:55 AM 48.2 °F - 45.5 °F 90% 29.34 in 10.0 mi ESE 8.1 mph - N/A   Overcast
7:15 AM 48.2 °F - 45.7 °F 91% 29.34 in 10.0 mi East 4.6 mph - N/A   Overcast
7:35 AM 48.9 °F - 46.4 °F 91% 29.34 in 10.0 mi SSE 6.9 mph - N/A   Overcast
7:55 AM 50.0 °F - 47.5 °F 91% 29.33 in 10.0 mi SE 4.6 mph - N/A   Overcast
8:15 AM 51.1 °F - 48.4 °F 90% 29.32 in 10.0 mi SSE 6.9 mph - N/A   Overcast
8:35 AM 53.6 °F - 50.2 °F 88% 29.32 in 10.0 mi SSE 8.1 mph - N/A   Overcast
8:55 AM 55.4 °F - 50.9 °F 85% 29.32 in 10.0 mi South 11.5 mph - N/A   Overcast
9:15 AM 56.1 °F - 51.1 °F 83% 29.32 in 10.0 mi South 13.8 mph - N/A   Overcast
9:35 AM 56.5 °F - 51.3 °F 83% 29.31 in 10.0 mi South 15.0 mph - N/A   Overcast
9:55 AM 56.8 °F - 51.6 °F 83% 29.30 in 10.0 mi SSW 13.8 mph 19.6 mph N/A   Overcast
10:15 AM 57.4 °F - 51.4 °F 81% 29.30 in 10.0 mi SSW 12.7 mph 20.7 mph N/A   Overcast
10:35 AM 57.7 °F - 51.4 °F 79% 29.29 in 10.0 mi SSW 12.7 mph - N/A   Overcast
10:55 AM 59.0 °F - 51.3 °F 75% 29.29 in 10.0 mi SW 11.5 mph - N/A   Overcast
11:15 AM 60.8 °F - 49.6 °F 67% 29.29 in 10.0 mi SW 17.3 mph 26.5 mph N/A   Overcast
11:35 AM 60.4 °F - 48.2 °F 64% 29.29 in 10.0 mi SW 18.4 mph 28.8 mph N/A   Overcast
11:55 AM 60.3 °F - 47.7 °F 63% 29.29 in 10.0 mi WSW 20.7 mph 26.5 mph N/A   Overcast
12:15 PM 61.7 °F - 46.6 °F 58% 29.29 in 10.0 mi WSW 18.4 mph 27.6 mph N/A   Mostly Cloudy
12:35 PM 63.5 °F - 45.5 °F 52% 29.29 in 10.0 mi West 18.4 mph 23.0 mph N/A   Mostly Cloudy
12:55 PM 50.2 °F - 42.3 °F 74% 29.34 in 10.0 mi WNW 32.2 mph 40.3 mph N/A   Overcast
1:15 PM 45.3 °F 35.7 °F 38.5 °F 77% 29.37 in 10.0 mi NW 29.9 mph 36.8 mph N/A   Overcast
1:35 PM 43.0 °F 32.7 °F 36.3 °F 77% 29.42 in 10.0 mi NW 28.8 mph 38.0 mph N/A   Overcast
1:55 PM 41.4 °F 30.7 °F 34.3 °F 76% 29.43 in 10.0 mi NW 27.6 mph 39.1 mph N/A   Overcast
2:15 PM 41.2 °F 30.7 °F 35.6 °F 81% 29.44 in 5.0 mi NW 26.5 mph 34.5 mph N/A   Haze
2:35 PM 41.4 °F 30.1 °F 32.9 °F 72% 29.46 in 10.0 mi NW 31.1 mph 38.0 mph N/A   Overcast
2:55 PM 40.6 °F 30.0 °F 32.7 °F 73% 29.48 in 10.0 mi NW 26.5 mph 34.5 mph N/A   Overcast
3:15 PM 39.9 °F 29.0 °F 31.5 °F 72% 29.50 in 10.0 mi NW 26.5 mph 35.7 mph N/A   Overcast
3:35 PM 38.7 °F 27.3 °F 31.1 °F 74% 29.51 in 10.0 mi WNW 26.5 mph 34.5 mph N/A   Overcast
3:55 PM 38.8 °F 28.3 °F 30.0 °F 71% 29.53 in 10.0 mi WNW 23.0 mph 33.4 mph N/A   Overcast
4:15 PM 38.7 °F 27.1 °F 29.5 °F 70% 29.54 in 10.0 mi NW 27.6 mph 41.4 mph N/A   Overcast
4:35 PM 39.2 °F 28.0 °F 29.7 °F 69% 29.56 in 10.0 mi NW 26.5 mph 35.7 mph N/A   Overcast
4:55 PM 38.8 °F 29.1 °F 29.8 °F 70% 29.57 in 10.0 mi NW 19.6 mph 33.4 mph N/A   Overcast
5:15 PM 39.2 °F 27.6 °F 30.0 °F 70% 29.59 in 10.0 mi NW 28.8 mph 32.2 mph N/A   Overcast
5:35 PM 38.7 °F 26.7 °F 29.8 °F 71% 29.61 in 10.0 mi NW 29.9 mph 35.7 mph N/A   Overcast
5:55 PM 38.3 °F 26.6 °F 29.8 °F 72% 29.64 in 10.0 mi NW 27.6 mph 35.7 mph N/A   Overcast
6:15 PM 38.3 °F 27.1 °F 29.3 °F 70% 29.66 in 10.0 mi NW 25.3 mph 34.5 mph N/A   Overcast
6:35 PM 38.3 °F 27.3 °F 29.3 °F 70% 29.67 in 10.0 mi NW 24.2 mph 33.4 mph N/A   Overcast
7:15 PM 37.6 °F 26.3 °F 28.6 °F 70% 29.72 in 10.0 mi NW 24.2 mph 35.7 mph N/A   Overcast
7:55 PM 37.0 °F 26.4 °F 28.4 °F 71% 29.75 in 10.0 mi NNW 20.7 mph 28.8 mph N/A   Overcast
8:15 PM 37.2 °F 26.4 °F 28.8 °F 71% 29.76 in 10.0 mi NW 21.9 mph 29.9 mph N/A   Overcast
8:35 PM 37.4 °F 27.2 °F 28.8 °F 71% 29.77 in 10.0 mi NNW 19.6 mph 32.2 mph N/A   Overcast
8:55 PM 37.0 °F 27.0 °F 28.6 °F 71% 29.79 in 10.0 mi NNW 18.4 mph - N/A   Overcast
9:15 PM 36.9 °F 27.5 °F 28.4 °F 71% 29.80 in 10.0 mi NW 16.1 mph 23.0 mph N/A   Overcast
9:35 PM 36.0 °F 28.0 °F 28.4 °F 74% 29.82 in 10.0 mi NW 11.5 mph - N/A   Overcast
9:55 PM 35.8 °F 27.8 °F 28.4 °F 75% 29.83 in 10.0 mi NW 11.5 mph - N/A   Overcast
10:15 PM 36.0 °F 28.0 °F 28.4 °F 74% 29.85 in 10.0 mi NW 11.5 mph - N/A   Overcast
10:35 PM 36.1 °F 28.7 °F 28.2 °F 73% 29.85 in 10.0 mi NW 10.4 mph - N/A   Overcast
10:55 PM 36.0 °F 27.5 °F 28.2 °F 73% 29.86 in 10.0 mi NW 12.7 mph - N/A   Overcast
11:15 PM 35.6 °F 28.0 °F 27.1 °F 71% 29.87 in 10.0 mi NNW 10.4 mph - N/A   Mostly Cloudy
11:35 PM 34.9 °F 27.1 °F 27.5 °F 74% 29.87 in 10.0 mi NW 10.4 mph - N/A   Clear
11:55 PM 34.3 °F 27.7 °F 27.5 °F 76% 29.88 in 10.0 mi NW 8.1 mph - N/A   Scattered Clouds